ロニオス彗星

150P/LONEOS (2008)

English version
Home page
Updated on March 17, 2010

---------------------------------------------------------------------

・ プロフィール

・ 軌道要素

Epoch 2008 Nov. 30.0 TT = JDT 2454800.5  
T 2008 Nov. 26.00041 TT                                 Muraoka 
q   1.7676947            (2000.0)            P               Q
n   0.12834696     Peri.  245.67032     -0.88078761     -0.35172241
a   3.8923539      Node   272.42930     +0.45905552     -0.79844257
e   0.5458546      Incl.   18.50030     -0.11610865     -0.48865204
P   7.68
>From 215 observations 1978-2001, mean residual 0".51.

・ 光度変化

        H = 14.5  G = 0.15

---------------------------------------------------------------------

軌道要素は村岡健治氏の計算によるものです。
光度グラフはComet for Windowsで作成したものです。

---------------------------------------------------------------------

Copyright(C) Seiichi Yoshida (comet@aerith.net). All rights reserved.